2018-015J (43200 NORAD) Tracking and Keplerian Element Data

This shows tracking and keplerian element data for the satellite.

Feedback or suggestion? Click here.




ElementValue
Catalog43200
Name2018-015J
Epoch Orbit451
Epoch Day62.93605527
Epoch Year2018
RAAN194.8488
Inclination97.4409
Eccentricity0.0031894
Argument of Perigee242.0182
Mean Anonmoly117.781
Mean Motion15.29907425
Decay Rate4.135E-05
L11 43200U 18015J 18062.93605527 .00004135 00000-0 14338-3 0 9993
L22 43200 97.4409 194.8488 0031894 242.0182 117.7810 15.29907425 4519

Live tracking and technical data element details for 2018-015J (NORAD 43200). 2018-015J can be tracked NOW for your location showing map with azimuth and elevation plus other details from your city location.

Track the satellite on the map from your city or location and see movement details for azimuth, elevation, latitude, longitude, range, height, and movement on the map or in text.







IsCatalogInMostPopularTable: catalog: 43200, numindb: 115
Update: records affected: 1



GetName: 43200 2018-015J

Hit Count: updated at: Wed, 14 Nov 2018 11:02:11 GMT